TimeEDT,TemperatureF,Dew PointF,Humidity,Sea Level PressureIn,VisibilityMPH,Wind Direction,Wind SpeedMPH,Gust SpeedMPH,PrecipitationIn,Events,Conditions,WindDirDegrees,DateUTC
12:51 AM,75.0,64.0,69,30.06,10.0,Calm,Calm,-,N/A,,Clear,0,2013-05-30 04:51:00
1:51 AM,72.0,64.9,78,30.06,10.0,Calm,Calm,-,N/A,,Clear,0,2013-05-30 05:51:00
2:51 AM,72.0,64.9,78,30.06,10.0,SSW,3.5,-,N/A,,Clear,210,2013-05-30 06:51:00
3:51 AM,70.0,64.9,84,30.06,9.0,Calm,Calm,-,N/A,,Clear,0,2013-05-30 07:51:00
4:51 AM,70.0,64.9,84,30.06,9.0,Calm,Calm,-,N/A,,Clear,0,2013-05-30 08:51:00
5:51 AM,70.0,64.9,84,30.09,7.0,South,3.5,-,N/A,,Clear,180,2013-05-30 09:51:00
6:51 AM,73.0,66.0,79,30.10,10.0,Calm,Calm,-,N/A,,Clear,0,2013-05-30 10:51:00
7:51 AM,75.0,66.9,76,30.11,9.0,South,4.6,-,N/A,,Clear,170,2013-05-30 11:51:00
8:51 AM,82.0,64.9,56,30.12,10.0,WNW,6.9,-,N/A,,Clear,290,2013-05-30 12:51:00
9:51 AM,84.0,64.9,53,30.11,10.0,Variable,5.8,-,N/A,,Clear,0,2013-05-30 13:51:00
10:51 AM,86.0,66.0,51,30.10,10.0,WNW,6.9,-,N/A,,Clear,290,2013-05-30 14:51:00
11:51 AM,87.1,66.0,49,30.10,10.0,WSW,5.8,-,N/A,,Clear,250,2013-05-30 15:51:00
12:51 PM,89.1,63.0,42,30.09,10.0,West,10.4,-,N/A,,Clear,260,2013-05-30 16:51:00
1:51 PM,91.0,64.9,42,30.08,10.0,West,10.4,-,N/A,,Clear,280,2013-05-30 17:51:00
2:51 PM,90.0,63.0,40,30.07,10.0,West,10.4,18.4,N/A,,Partly Cloudy,260,2013-05-30 18:51:00
3:51 PM,91.0,62.1,38,30.05,10.0,West,8.1,17.3,N/A,,Partly Cloudy,260,2013-05-30 19:51:00
4:51 PM,91.0,62.1,38,30.04,10.0,SSW,8.1,-,N/A,,Scattered Clouds,210,2013-05-30 20:51:00
5:51 PM,90.0,63.0,40,30.04,10.0,SW,13.8,-,N/A,,Partly Cloudy,230,2013-05-30 21:51:00
6:51 PM,90.0,61.0,38,30.04,10.0,SW,9.2,-,N/A,,Clear,230,2013-05-30 22:51:00
7:51 PM,90.0,61.0,38,30.04,10.0,WSW,6.9,-,N/A,,Clear,240,2013-05-30 23:51:00
8:51 PM,84.0,62.1,47,30.05,10.0,SW,5.8,-,N/A,,Clear,230,2013-05-31 00:51:00
9:51 PM,82.9,62.1,49,30.06,10.0,SW,6.9,-,N/A,,Clear,230,2013-05-31 01:51:00
10:51 PM,81.0,63.0,54,30.07,10.0,Calm,Calm,-,N/A,,Clear,0,2013-05-31 02:51:00
11:51 PM,80.1,63.0,56,30.08,10.0,WSW,3.5,-,N/A,,Clear,250,2013-05-31 03:51:00